Regional Weather Roundup
Issued by NWS

Home | Current Version | Previous Version | Graphics & Text | Print | Product List | Glossary On
Versions: 1 2 3 4 5 6 7 8 9 10 11 12 13 14 15 16 17 18 19 20 21 22 23 24 25 26 27 28 29 30 31 32 33 34 35 36 37 38 39 40 41 42 43 44 45 46 47 48 49 50
000
ASUS43 KOAX 020102
RWRNE

WEATHER ROUNDUP FOR NEBRASKA
NATIONAL WEATHER SERVICE OMAHA NE
800 PM CDT FRI AUG 01 2014

NOTES: SATELLITE DATA IS BEING USED TO AUGMENT CLOUD COVER ABOVE
       12000 FEET.
       "FAIR" INDICATES FEW OR NO CLOUDS BELOW 12,000 FEET WITH NO
       SIGNIFICANT WEATHER AND/OR OBSTRUCTIONS TO VISIBILITY.

  * THESE STATIONS DO NOT REPORT WEATHER SUCH AS RAIN...SNOW OR FOG.

NEZ001>004-019>022-054>056-020200-
NEBRASKA PANHANDLE

CITY           SKY/WX    TMP DP  RH WIND       PRES   REMARKS
SCOTTSBLUFF    MOSUNNY   86  46  24 E8        30.13S
ALLIANCE       MOSUNNY   83  40  21 SW8       30.13R
CHADRON        CLOUDY    87  41  19 NE12G23   30.07F
KIMBALL        MOSUNNY   80  43  27 S10       30.20R
SIDNEY         MOSUNNY   83  39  21 S9        30.18R
$$

NEZ057>060-069>072-079>082-020200-
SOUTHWEST NEBRASKA

CITY           SKY/WX    TMP DP  RH WIND       PRES   REMARKS
NORTH PLATTE   PTCLDY    79  53  40 SE9       30.09S
IMPERIAL       MOSUNNY   86  48  26 SE6       30.12R
MCCOOK         PTCLDY    83  58  42 E8        30.10S
$$

NEZ005>010-023>029-035>040-094-020200-
NORTH CENTRAL NEBRASKA

CITY           SKY/WX    TMP DP  RH WIND       PRES   REMARKS
VALENTINE      LGT RAIN  87  54  32 SE15      30.03S
AINSWORTH      CLEAR     83  54  37 SE13      30.07R
BROKEN BOW     CLEAR     80  61  52 SE8       30.09S
ORD            CLEAR     78  57  48 SE9       30.08S
$$

NEZ041-046>049-061>064-073>077-083>087-020200-
SOUTH CENTRAL NEBRASKA

CITY           SKY/WX    TMP DP  RH WIND       PRES   REMARKS
GRAND ISLAND   CLEAR     78  60  53 E5        30.10S
AURORA         CLEAR     77  64  64 E3        30.09S
HASTINGS       CLEAR     77  57  50 E8        30.10R
HEBRON         CLEAR     80  60  50 N3        30.06S
HOLDREGE       PTCLDY    79  62  55 E7        30.10S
KEARNEY *      PTCLDY    79  61  53 E8        30.11S
YORK           CLEAR     77  66  69 NE5       30.09S
$$

NEZ011>018-030>034-042>045-020200-
NORTHEAST NEBRASKA

CITY           SKY/WX    TMP DP  RH WIND       PRES   REMARKS
NORFOLK        CLEAR     79  59  50 SE7       30.07F
ALBION         CLEAR     75  60  58 SE5       30.09S
BLAIR          CLEAR     76  64  64 NE3       30.07S
COLUMBUS *     CLEAR     77  57  50 E6        30.08S
FREMONT        CLEAR     79  61  52 E3        30.08S
TEKAMAH        CLEAR     80  64  58 CALM      30.07R
$$

NEZ050>053-065>068-078-088>093-020200-
SOUTHEAST NEBRASKA

CITY           SKY/WX    TMP DP  RH WIND       PRES   REMARKS
LINCOLN        CLEAR     81  57  43 E8        30.07S
OMAHA EPPLEY   PTCLDY    80  61  52 E5        30.06S
BEATRICE       CLEAR     79  64  59 E6        30.06R
FALLS CITY     CLEAR     78  63  59 E5        30.04S
NEBRASKA CITY  CLEAR     76  61  60 E5        30.07S
PLATTSMOUTH    CLEAR     78  61  56 CALM      30.07R
$$

NEZ044-045-051>053-067-020200-
OMAHA AREA

CITY           SKY/WX    TMP DP  RH WIND       PRES   REMARKS
OMAHA EPPLEY   PTCLDY    80  61  52 E5        30.06S
BLAIR          CLEAR     76  64  64 NE3       30.07S
FREMONT        CLEAR     79  61  52 E3        30.08S
OFFUTT AFB     CLEAR     79  65  62 E5        30.06S
PLATTSMOUTH    CLEAR     78  61  56 CALM      30.07R
WAHOO          FAIR      79  65  62 CALM      30.07S
$$



USA.gov is the U.S. government's official web portal to all federal, state and local government web resources and services.